Voltar ao catálogo

STARLINK-1368

AtivoComunicaçõesVLEO
NORAD 45540·PAYLOAD·🇺🇸 United States

Lançado Apr 22, 2020 de Cape Canaveral Space Force Station

Loading…

Próximas Passagens (próximas 24 horas)

TLE

AtualizadoSource: CelesTrak SupGP

Época: Sep 14, 2026, 13:11 UTC

1 45540C 20025K   26257.54979167  .00093464  00000+0  18634-2 0  2573
2 45540  53.1514 293.8482 0003586  49.2483  41.3873 15.46229793    12

Acompanhe STARLINK-1368 em tempo real com AllMySat

Download on the App Store